Wetbulb
43.92 42.55 41.66 40.81 39.90 39.03 38.69 38.89 39.47 40.07 40.06 39.77 39.61 39.38 38.76 37.86 37.51 37.11 35.66 35.04 34.74 35.03
43.04 41.73 41.00 39.82 39.23 39.15 39.26 40.37 39.40 39.45 39.24 39.01 39.08 38.96 37.97 37.01 36.35 35.62 34.97 34.53 34.25 34.12
40.47 41.31 40.42 39.51 39.42 39.19 38.88 38.98 39.05 38.48 38.88 38.62 38.51 38.05 37.12 35.76 35.59 34.37 33.97 34.54 32.03 30.17
40.24 40.09 39.41 38.90 38.72 38.63 38.37 38.33 38.79 39.39 38.08 38.22 38.43 37.51 36.47 35.18 34.48 32.19 29.26 28.60 28.39 28.45
39.49 39.66 38.88 38.22 38.39 38.27 37.08 38.52 38.55 37.55 35.94 35.38 35.57 34.88 32.34 31.79 30.48 29.13 28.10 27.78 27.52 27.84
37.09 37.03 37.29 37.88 37.70 37.49 37.90 37.37 37.34 38.47 36.45 35.60 34.65 33.38 31.81 30.84 29.40 28.06 27.80 27.35 27.21 27.09
36.97 37.23 36.93 37.18 36.68 36.70 37.61 37.01 37.38 38.19 36.17 35.70 34.16 32.68 30.86 29.24 27.46 27.06 27.62 27.99 27.51 26.88
37.75 37.69 36.88 36.41 36.88 37.38 37.76 37.77 37.77 37.46 36.53 33.70 33.00 30.76 27.86 28.00 27.54 26.90 26.48 27.31 27.33 27.08
37.75 37.49 37.05 37.00 36.67 36.51 36.21 37.56 38.00 32.15 30.88 31.35 31.74 32.51 32.52 31.28 27.24 27.41 26.87 25.58 26.48 26.26
36.86 36.19 36.11 36.36 36.20 35.82 35.31 36.93 31.91 32.17 32.09 30.18 29.56 32.63 32.97 32.51 29.31 27.47 26.57 25.56 25.34 25.30
35.10 35.44 35.42 35.03 33.98 31.62 31.67 34.38 34.80 31.46 29.87 28.12 29.09 31.82 30.94 29.06 24.83 23.94 24.50 23.95 23.89 23.83
34.50 34.78 34.20 33.37 34.25 34.84 35.00 34.00 29.53 29.44 28.00 26.53 26.07 29.66 29.21 26.87 22.97 23.05 22.34 23.67 23.94 23.63
33.29 33.34 33.13 32.24 32.25 35.06 33.48 29.46 28.45 27.63 26.63 27.72 23.56 27.45 27.35 25.52 20.71 15.41 21.42 22.10 22.74 24.30
31.89 30.86 31.50 33.71 33.80 34.64 30.43 27.90 25.15 24.06 24.70 24.60 24.72 23.23 26.22 25.84 19.95 20.26 21.19 21.18 21.50 23.45
MSLP
1023.17 1023.19 1023.24 1023.29 1023.36 1023.36 1023.37 1023.23 1022.96 1022.93 1022.92 1022.86 1022.76 1022.68 1022.64 1022.56 1022.45 1022.50 1022.53 1022.47 1022.34 1022.26
1023.18 1023.22 1023.19 1023.15 1023.09 1023.13 1022.88 1022.59 1022.57 1022.52 1022.47 1022.52 1022.62 1022.72 1022.69 1022.70 1022.47 1022.28 1022.18 1022.17 1022.05 1022.20
1023.08 1022.96 1023.01 1023.14 1023.00 1022.82 1022.65 1022.43 1022.38 1022.49 1022.46 1022.24 1022.20 1022.26 1022.72 1022.52 1022.29 1022.38 1022.20 1022.00 1021.99 1022.09
1022.76 1022.98 1023.06 1023.04 1022.88 1022.70 1022.70 1022.74 1022.63 1022.43 1022.43 1022.52 1022.45 1022.09 1022.03 1022.25 1022.05 1022.08 1022.15 1022.16 1022.27 1022.13
1023.12 1023.09 1023.23 1023.15 1022.96 1022.57 1022.34 1022.34 1022.38 1022.15 1021.90 1021.75 1021.83 1021.89 1021.86 1021.88 1021.75 1021.89 1022.15 1022.30 1022.27 1021.98
1023.00 1022.91 1022.75 1022.50 1022.33 1022.37 1022.20 1022.09 1022.07 1022.19 1022.85 1022.33 1021.66 1021.61 1021.74 1021.70 1021.83 1021.96 1022.16 1022.26 1022.08 1021.72
1023.14 1023.10 1022.71 1022.42 1022.23 1022.10 1021.98 1022.01 1022.07 1022.00 1022.05 1022.08 1021.72 1021.75 1021.69 1021.80 1021.94 1022.08 1022.13 1022.02 1021.73 1021.40
1023.14 1022.91 1022.76 1022.63 1022.44 1022.14 1021.93 1021.78 1021.92 1021.88 1021.82 1021.83 1021.83 1022.04 1022.00 1021.86 1022.03 1022.02 1021.92 1021.72 1021.40 1021.10
1023.12 1023.03 1022.97 1022.73 1022.35 1022.00 1021.84 1021.76 1021.71 1021.80 1021.77 1021.66 1021.89 1021.98 1021.88 1021.92 1021.86 1021.86 1021.84 1021.63 1021.23 1020.88
1023.31 1023.11 1022.81 1022.56 1022.19 1021.77 1021.66 1021.61 1021.85 1021.86 1021.80 1022.01 1022.05 1021.91 1021.91 1021.89 1021.95 1021.98 1021.87 1021.57 1021.10 1020.61
1023.24 1022.99 1022.80 1022.37 1022.26 1022.09 1022.01 1021.87 1021.92 1022.14 1022.28 1022.39 1022.31 1022.11 1022.14 1022.21 1022.22 1022.12 1021.83 1021.43 1020.92 1020.41
1023.24 1023.02 1022.70 1022.40 1022.20 1022.04 1022.07 1022.11 1022.04 1022.34 1022.52 1022.51 1022.55 1022.27 1022.21 1022.21 1022.20 1022.00 1021.67 1021.21 1020.71 1020.17
1023.18 1023.03 1022.73 1022.40 1022.26 1022.23 1022.17 1022.20 1022.29 1022.58 1022.73 1022.77 1022.75 1022.47 1022.27 1022.14 1022.09 1022.10 1021.49 1021.00 1020.44 1019.89
1023.18 1022.95 1022.48 1022.38 1022.32 1022.27 1022.40 1022.45 1022.69 1022.95 1022.99 1022.95 1022.89 1022.72 1022.34 1022.13 1021.97 1021.76 1021.36 1020.91 1020.31 1019.68
Wind_Speed
5 3 4 5 4 4 4 4 4 4 4 5 5 4 4 3 3 4 4 6 4 3
5 5 5 7 5 4 5 4 6 6 6 5 4 5 4 4 5 3 4 5 4 2
6 7 6 5 7 7 6 5 5 5 5 4 5 4 4 4 4 4 4 3 2 1
6 4 5 5 6 6 5 5 4 4 2 4 5 4 4 5 4 1 1 2 3 4
5 5 6 6 6 6 5 5 4 3 4 5 3 6 4 5 3 2 2 4 5 5
5 6 6 7 7 5 6 2 3 5 9 8 6 4 3 3 2 1 3 5 6 6
4 5 5 6 6 5 3 3 2 3 6 9 6 4 3 3 1 3 5 5 6 6
5 6 7 7 7 6 6 3 2 5 6 5 2 1 1 1 3 5 5 6 6 6
5 6 6 7 7 7 5 4 4 4 2 4 2 2 1 4 4 5 5 7 7 7
5 6 6 7 7 7 6 2 4 4 5 2 3 4 9 10 4 4 6 6 7 8
6 6 6 6 6 5 3 2 2 2 3 2 3 8 8 8 5 5 6 7 9 9
5 6 6 6 5 2 1 3 3 3 3 4 4 7 7 5 3 5 7 8 9 10
5 6 6 5 4 3 4 2 4 3 3 5 3 8 10 9 2 4 6 7 9 14
5 6 6 3 4 2 1 3 3 1 1 3 4 4 10 12 2 4 5 6 7 7
Wind_Direction
147 173 189 197 197 209 207 216 227 238 217 226 216 227 228 227 238 263 282 281 282 290
202 195 211 217 200 210 220 224 220 218 219 232 247 256 250 263 273 278 274 271 279 277
235 228 224 210 225 230 243 245 238 250 256 248 241 246 273 274 283 292 296 296 350 352
250 261 243 244 257 253 286 306 284 267 272 274 269 289 267 276 278 262 79 15 340 307
260 261 281 282 288 263 251 270 275 336 267 259 261 246 244 252 157 128 326 310 302 292
326 305 282 275 277 283 251 252 328 4 322 289 256 251 219 151 124 47 283 282 285 285
342 301 321 327 320 280 246 231 302 315 253 268 262 238 182 128 82 287 276 284 277 277
341 343 333 320 301 282 252 234 286 288 275 277 293 234 162 46 292 288 289 286 284 280
339 330 313 301 290 282 266 265 266 299 342 43 17 190 314 299 289 291 292 296 294 289
320 314 315 308 305 294 272 289 53 26 59 55 337 326 339 354 347 322 308 304 304 306
317 310 308 310 325 348 29 56 56 114 84 55 20 15 34 25 5 329 315 310 303 303
312 308 311 323 319 326 337 329 109 105 75 56 26 19 12 355 325 316 310 307 309 308
319 305 300 320 342 317 298 145 117 93 61 83 34 6 1 354 297 295 315 319 314 316
317 308 301 312 323 322 76 103 68 76 55 68 38 351 355 355 288 293 323 320 318 315